User: anonymous   Login
Location: Prairie State College
(41.5244°N, 87.6382°W)
Time: 09:47:49
(UTC-05:00)
Language:

ARGOS Delta rocket - Orbit

View from above orbital plane
View from above orbital plane
View from above satellite
View from above satellite

Ground track
Ground track

The orbit data is extracted from the following two-line orbital elements,

1 25637U 99008D   18109.62794674 +.00000022 +00000-0 +13093-4 0  9997
2 25637 096.4502 302.4675 0143342 026.6513 013.3940 14.46569485009638
Epoch (UTC): 19 April 2018 15:04:14
Eccentricity: 0.0143342
inclination: 96.4502°
perigee height: 635 km
apogee height: 839 km
right ascension of ascending node: 302.4675°
argument of perigee: 26.6513°
revolutions per day: 14.46569485
mean anomaly at epoch: 13.3940°
orbit number at epoch: 963

The dashed part of the orbit path shows where the satellite is in the earth's shadow,  

DLR